APRIZESAT 10

Last updated on Fri Dec 29 2023 00:03:29 GMT+0000 (Coordinated Universal Time)

1 40019U 14033K 23362.37486750 .00001205 00000+0 20703-3 0 9993 2 40019 97.8411 141.5425 0080946 273.0107 86.1839 14.68348876509964
UTC large
Height (km)
Speed (km/s)
/
Latitude / Longitude
Inclination (degrees)
Orbital Period (minutes)
Azimuth
Elevation
Range (km)
Doppler Factor

Next 0 passes for location: London (51.5072 / 0.1276)

Sorry there are no passes over London.